Probability
0 0 0 0 0 0 0 0 0 0 0 0 1 3 5 8 11 12 14 19 25 28 29 30 29 26 26 26 25 25 24 23 20 17 16 15 14 13 12 10 9 8 8 8
0 0 0 0 0 0 0 0 0 0 0 0 1 2 4 7 10 12 14 20 27 32 32 33 31 28 27 27 26 25 24 23 21 17 16 16 15 13 11 10 9 9 9 9
0 0 0 0 0 0 0 0 0 0 0 0 0 2 4 5 8 12 17 23 29 33 33 33 32 29 28 28 26 24 24 24 21 18 17 17 16 14 11 11 11 11 10 10
0 0 0 0 0 0 0 0 0 0 0 0 0 1 2 4 7 14 19 24 29 30 30 30 30 29 27 25 23 22 23 23 22 19 18 18 17 15 13 14 15 13 11 11
0 0 0 0 0 0 0 0 0 0 0 0 0 0 1 3 7 13 19 23 26 27 27 28 28 27 25 23 21 21 21 22 22 21 20 18 18 16 16 17 17 16 12 11
0 0 0 0 0 0 0 0 0 0 0 0 0 0 1 3 7 11 16 20 23 25 25 25 25 25 24 22 21 20 20 20 21 21 21 19 18 17 17 18 18 15 12 9
0 0 0 0 0 0 0 0 0 0 0 0 0 1 2 5 8 11 14 18 21 24 24 23 22 24 25 23 21 21 21 20 20 20 21 20 18 16 16 17 16 12 9 7
0 0 0 0 0 0 0 0 0 0 0 0 0 2 4 8 10 12 14 17 20 22 22 19 19 21 24 25 23 22 22 21 19 19 19 19 17 14 12 12 11 8 5 5
0 0 0 0 0 0 0 0 0 0 0 0 1 3 7 10 12 12 14 18 20 19 19 18 17 19 22 23 22 21 20 18 16 16 16 15 14 12 8 7 8 7 4 4
0 0 0 0 0 0 0 0 0 0 0 0 1 3 7 10 10 10 14 19 21 21 22 22 19 17 17 17 18 17 17 14 12 12 12 11 11 10 8 7 8 8 6 5
0 0 0 0 0 0 0 0 0 0 0 0 0 2 5 7 8 9 14 19 22 23 23 22 18 13 11 12 13 14 15 14 11 10 10 9 9 9 9 8 9 9 8 7
0 0 0 0 0 0 0 0 0 0 0 0 1 3 5 6 7 10 14 18 19 18 17 16 13 10 9 11 11 12 14 13 12 10 10 9 9 10 10 9 8 8 8 8
0 0 0 0 0 0 0 0 0 0 0 1 2 4 6 6 7 9 13 14 14 13 11 11 10 10 10 12 13 12 12 11 10 10 10 9 10 11 11 10 8 8 8 9
0 0 0 0 0 0 0 0 0 0 0 1 2 4 6 6 6 7 10 11 12 12 11 10 11 11 11 13 13 13 10 9 9 10 10 10 10 11 10 9 9 9 9 9
0 0 0 0 0 0 0 0 0 0 0 1 2 3 6 6 5 6 8 9 12 14 13 11 11 12 12 13 13 12 9 7 8 9 9 9 8 8 8 8 8 9 8 7
0 0 0 0 0 0 0 0 0 0 0 2 3 4 5 5 4 4 6 9 12 14 14 11 11 11 12 13 12 11 7 5 5 7 7 6 5 5 5 6 7 6 5 4
0 0 0 0 0 0 0 0 0 1 1 3 5 5 4 4 3 3 4 7 10 12 13 13 12 11 12 12 11 8 5 3 4 4 4 3 3 3 4 5 5 4 3 3
0 0 0 0 0 0 1 1 1 2 4 5 6 5 4 4 4 3 4 6 8 10 12 14 13 12 11 10 9 6 3 2 2 2 2 2 3 3 3 4 4 4 3 3
0 0 0 0 0 1 2 2 3 4 5 6 6 5 4 4 5 4 4 6 9 10 11 12 12 11 10 9 6 4 2 1 1 0 1 2 3 3 3 3 2 3 3 3
0 0 0 0 0 1 3 3 4 5 6 5 4 4 4 5 5 4 4 6 9 10 10 11 11 10 8 6 4 3 1 0 0 0 1 2 3 3 3 2 1 2 2 1
0 0 0 0 0 2 3 4 3 4 4 3 2 2 4 5 5 4 4 5 7 9 10 10 11 10 7 5 3 2 1 0 0 1 1 2 3 3 2 1 0 1 1 0
1 1 1 1 0 1 3 4 2 1 1 1 2 3 4 5 6 5 4 4 5 8 9 10 11 9 6 4 3 2 1 1 1 2 2 2 2 1 1 0 0 0 0 0
2 2 2 2 1 0 1 1 1 0 0 1 2 3 3 4 5 4 4 3 5 6 7 8 8 8 6 4 3 3 2 2 3 3 3 3 1 0 0 0 0 0 0 0
3 3 3 2 1 0 0 0 0 0 0 1 2 2 1 1 2 2 2 2 3 4 4 5 5 5 5 3 3 4 4 3 4 4 3 3 1 0 0 1 1 1 0 0
2 2 2 1 0 0 0 0 0 0 1 1 1 1 0 0 0 1 1 1 2 3 3 3 3 3 3 2 2 3 5 4 4 4 4 3 2 0 1 2 2 1 0 0
1 1 1 0 0 0 0 0 0 1 2 2 1 0 0 0 0 0 0 1 2 3 3 3 3 3 3 3 1 2 4 5 5 4 4 3 1 0 1 2 3 1 0 0
Wind_Speed
2 2 5 9 8 8 6 5 8 9 6 1 3 4 5 3 4 5 6 7 8 8 7 8 9 9 9 8 8 7 7 6 5 3 3 3 3 2 2 3 4 4 4 4
1 7 12 9 6 6 7 7 8 8 5 2 3 5 4 3 5 6 7 8 8 6 6 7 8 8 8 8 7 7 7 6 5 4 3 3 3 2 2 2 2 3 4 4
9 10 7 7 8 8 9 7 7 6 5 3 1 5 4 3 2 3 4 6 7 9 11 10 9 8 8 7 7 7 6 6 5 4 3 2 2 2 1 1 1 2 3 3
7 9 7 7 9 8 8 8 7 5 3 4 2 3 6 3 2 2 3 5 7 8 9 10 10 9 9 8 7 6 6 6 5 5 5 5 4 3 3 2 2 2 3 3
7 6 6 8 9 7 8 8 6 5 3 2 2 2 6 1 2 3 3 4 6 7 9 10 11 11 9 8 7 6 6 5 5 5 5 5 3 3 2 2 2 2 1 2
8 6 6 7 7 6 4 1 3 2 2 3 5 3 6 4 6 5 4 4 5 7 8 8 8 8 7 7 7 6 6 4 4 5 5 5 5 4 3 2 2 2 1 1
6 7 5 4 3 4 1 3 3 4 2 6 4 3 7 6 6 7 7 7 5 7 8 8 8 8 8 8 8 7 6 5 4 4 4 5 5 5 5 4 3 3 2 2
3 6 5 3 4 5 4 7 7 5 5 5 2 4 6 4 4 4 5 6 5 6 7 8 8 8 8 8 8 8 7 5 5 4 4 4 4 4 3 3 3 3 3 3
4 6 5 3 3 5 2 3 7 6 2 2 3 3 5 2 1 1 3 5 6 6 8 8 8 8 8 8 8 8 8 5 5 4 4 4 4 4 4 3 3 3 3 3
5 3 5 4 1 1 5 4 4 4 3 3 3 3 4 3 3 1 3 6 6 5 6 6 6 7 6 6 6 6 6 6 5 4 4 4 4 4 4 3 3 3 3 3
3 3 5 2 2 3 1 0 3 4 5 5 3 5 3 5 4 2 2 3 6 6 6 6 6 6 5 5 5 5 5 5 4 4 3 3 3 3 3 3 3 3 3 3
1 4 2 5 5 2 2 2 4 4 3 4 4 6 2 2 2 2 2 2 5 6 6 6 5 5 4 4 4 4 4 4 4 4 3 3 3 3 3 2 3 3 3 3
2 4 1 6 6 5 2 1 1 3 3 3 3 5 2 3 2 2 2 1 3 4 5 4 4 5 4 4 4 4 4 4 3 3 3 3 2 3 3 2 2 3 3 3
4 4 5 6 5 3 3 4 2 3 2 3 5 4 2 2 1 2 2 2 3 5 5 5 4 4 3 3 4 4 4 3 4 3 3 3 3 3 3 2 2 2 3 3
4 2 2 3 3 1 2 4 2 1 4 5 4 4 4 3 2 1 2 3 4 6 5 5 5 4 3 2 2 3 3 3 3 4 3 3 2 2 2 2 2 2 2 3
3 2 0 2 2 1 3 5 3 1 1 2 2 1 1 1 2 2 3 4 5 5 4 3 4 4 4 4 3 3 3 2 3 4 3 3 2 2 2 2 2 2 2 2
0 2 2 3 4 1 2 3 2 1 1 2 2 3 1 2 2 2 3 4 4 4 4 4 3 4 4 3 4 3 3 3 3 3 3 3 3 3 2 2 2 2 2 2
4 3 2 1 2 2 3 2 3 4 5 4 3 2 2 2 2 2 2 3 3 3 3 2 2 2 3 3 3 3 3 3 3 2 2 3 3 3 2 2 2 2 2 2
4 5 3 2 2 2 2 3 2 1 3 4 3 2 1 2 4 4 4 2 3 3 2 2 3 3 3 3 4 4 3 2 2 2 2 2 3 3 2 2 3 2 2 2
4 5 4 2 2 3 3 5 4 3 2 5 3 2 1 3 3 1 2 2 2 2 2 2 3 4 3 2 3 4 3 2 2 2 2 2 2 3 3 3 3 2 2 2
3 3 2 2 2 1 5 6 4 3 2 3 2 2 2 2 2 2 2 3 2 3 3 3 4 3 2 2 4 3 2 1 2 1 1 1 1 2 2 2 2 2 2 1
1 1 1 2 2 3 6 4 3 2 0 1 3 3 3 4 4 4 4 5 4 4 4 4 4 3 2 2 4 3 1 1 2 2 2 1 1 1 1 1 1 1 2 2
2 1 2 2 2 2 2 1 1 2 3 2 2 3 4 5 4 4 4 4 4 4 3 3 4 4 2 2 3 2 1 1 3 3 2 1 1 1 1 1 1 1 1 1
3 2 3 2 1 1 2 2 2 2 3 3 3 3 4 4 4 4 3 3 3 3 3 3 4 3 2 2 2 1 1 2 3 3 1 1 1 1 1 1 1 1 0 1
2 2 2 1 1 1 3 2 1 2 4 4 4 4 3 4 4 3 3 2 2 2 2 3 3 2 1 1 1 1 2 2 3 2 1 1 1 1 1 1 1 1 1 1
1 2 2 3 4 2 2 2 1 2 2 3 4 3 3 3 3 3 2 1 1 1 1 2 1 1 1 1 1 1 2 2 3 2 1 1 0 1 1 1 2 4 2 2
Wind_Direction
214 139 223 229 213 209 226 251 267 270 274 293 252 246 234 202 171 176 173 172 167 168 163 152 149 143 138 138 142 143 143 147 143 149 155 156 168 174 173 180 175 170 175 170
332 241 234 233 233 230 237 252 268 284 283 258 257 264 242 196 182 179 176 173 165 155 144 148 148 146 146 149 149 146 148 149 154 163 171 171 164 176 179 182 173 170 172 174
209 237 229 228 244 243 249 233 239 254 293 304 297 309 290 251 202 177 161 168 166 160 159 159 155 156 152 151 156 156 155 151 155 149 134 117 91 77 86 142 175 183 171 173
233 247 242 242 248 231 247 234 228 239 271 277 221 260 280 246 254 210 172 168 174 169 164 163 160 160 163 162 154 151 153 155 158 150 147 149 155 168 190 185 188 180 170 173
241 235 235 242 244 225 231 228 224 231 237 277 288 210 275 279 238 238 196 174 169 170 169 168 167 168 165 159 156 154 150 158 162 159 158 159 162 178 168 151 153 164 177 178
243 250 222 231 249 231 231 331 348 19 78 265 246 194 266 231 212 212 214 193 173 171 171 166 165 160 157 155 154 154 151 163 167 166 167 165 163 159 148 152 160 172 175 185
281 273 256 228 265 290 151 96 20 346 334 248 233 190 239 240 207 192 196 194 179 174 166 159 154 158 162 161 161 161 161 171 174 165 169 172 167 162 162 168 172 171 178 196
224 272 257 234 198 216 215 152 164 206 229 260 263 220 245 244 201 171 172 168 144 150 156 159 158 162 167 169 165 164 169 172 173 170 176 177 167 160 165 167 178 188 194 199
193 254 272 257 228 168 196 200 181 165 216 243 264 283 308 349 37 127 151 142 141 154 157 158 160 166 165 165 168 170 169 165 172 175 171 169 164 161 167 172 175 190 188 187
163 245 280 269 327 263 175 171 98 116 170 247 268 249 238 261 253 245 157 153 152 150 151 148 156 163 161 164 167 167 165 168 172 174 174 164 168 168 169 165 179 189 188 176
158 178 297 328 208 241 286 126 133 144 167 175 235 264 227 199 202 181 181 158 150 151 156 154 153 154 150 151 157 163 168 164 167 170 166 155 163 166 163 171 180 180 178 174
142 130 260 267 266 241 168 185 146 152 213 180 186 253 295 159 159 116 113 156 157 152 151 154 147 137 140 152 157 158 164 169 175 172 163 162 162 159 159 165 172 167 165 169
104 109 22 331 338 1 20 7 89 136 135 174 189 249 333 62 76 81 115 149 154 142 135 134 130 134 144 157 158 158 163 166 165 157 151 151 151 151 155 159 158 158 162 165
105 114 161 201 233 262 309 321 333 118 152 208 218 219 299 9 36 19 55 100 136 131 129 126 121 124 136 147 155 159 159 159 159 150 147 151 162 162 160 156 157 158 156 157
86 130 193 222 245 262 326 316 316 200 192 196 213 202 216 206 191 159 131 122 120 124 127 137 134 132 135 130 132 150 155 155 153 149 152 160 159 152 151 154 165 166 161 160
64 152 180 300 301 13 11 344 323 308 243 167 143 241 229 159 122 99 101 111 117 124 123 126 138 144 152 151 142 136 140 145 142 150 160 161 153 150 158 175 175 164 164 166
64 134 118 267 286 17 357 332 11 48 53 154 201 230 156 83 110 128 129 122 124 133 138 145 152 159 154 157 151 153 153 145 144 158 161 166 166 170 180 177 162 173 178 167
166 138 137 216 13 219 241 323 61 69 46 44 64 105 138 138 120 102 104 128 133 135 136 147 152 153 156 146 136 137 125 131 136 150 166 166 167 178 182 169 179 191 180 177
160 143 128 127 159 238 303 333 346 64 19 21 69 71 95 106 69 45 35 80 135 148 152 165 167 156 141 136 135 125 118 121 133 167 187 181 173 177 175 178 189 192 181 198
63 98 114 125 151 218 279 312 327 85 57 352 30 51 89 80 81 338 358 44 96 99 106 118 122 114 114 125 125 117 121 133 177 197 199 196 179 178 186 195 194 193 187 197
21 41 100 142 162 263 308 319 2 87 242 323 9 53 83 90 165 175 71 62 74 91 91 91 102 109 126 131 116 117 121 176 201 178 160 165 169 175 174 177 185 185 175 163
102 80 77 108 138 265 323 14 64 197 237 46 37 47 82 91 91 89 73 62 63 69 71 79 89 85 77 104 110 114 152 201 143 124 116 119 143 180 122 131 162 160 137 141
69 158 156 142 183 256 329 83 136 129 102 70 51 48 82 85 84 83 75 68 67 68 67 71 82 76 47 59 102 121 187 121 111 104 100 101 85 45 82 114 87 75 117 143
353 27 90 85 9 349 20 43 44 65 86 82 84 82 84 86 87 83 80 70 64 59 61 61 75 75 48 25 48 75 97 116 114 117 119 113 99 55 52 58 79 104 136 186
296 5 60 71 271 17 0 358 38 66 78 80 71 68 76 88 87 88 81 76 75 61 57 68 72 73 50 28 23 36 77 103 111 117 119 112 111 117 86 48 42 116 205 211
277 171 167 227 242 190 244 265 104 88 77 82 88 60 49 73 91 91 81 70 93 72 62 71 65 51 22 43 37 32 64 99 109 101 98 122 124 128 129 103 31 25 35 10